Location: Unspecified
(0.0000°N, 0.0000°E)
Time: 21:48:19
(UTC+00:00)

STARLINK-1171 - Visible Passes

Search period start: 20 June 2025 00:00
Search period end: 30 June 2025 00:00
Orbit: 546 x 548 km, 53.1° (Epoch: 20 June)

Date Brightness Start Highest point End Pass type
(mag) Time Alt. Az. Time Alt. Az. Time Alt. Az.
20 Jun 5.2 18:38:36 10° N 18:41:37 20° NE 18:44:11 12° E visible
20 Jun 6.0 20:17:50 10° WNW 20:19:49 18° WSW 20:19:49 18° WSW visible
21 Jun 4.6 18:31:40 10° N 18:35:18 30° NE 18:38:48 11° ESE visible
21 Jun 6.3 20:12:33 10° W 20:14:27 13° WSW 20:14:27 13° WSW visible
22 Jun 4.0 18:24:59 10° NNW 18:28:56 48° NE 18:32:56 10° SE visible
26 Jun 6.3 04:25:26 10° SSE 04:27:21 13° SE 04:29:14 10° E visible
27 Jun 5.8 04:19:24 16° SSE 04:20:57 20° SE 04:23:58 10° ENE visible
28 Jun 5.1 04:13:58 28° SE 04:14:32 30° SE 04:18:09 10° ENE visible
29 Jun 4.5 04:08:29 45° ESE 04:08:29 45° ESE 04:12:04 10° NE visible
